TimeCST,TemperatureF,Dew PointF,Humidity,Sea Level PressureIn,VisibilityMPH,Wind Direction,Wind SpeedMPH,Gust SpeedMPH,PrecipitationIn,Events,Conditions,WindDirDegrees,DateUTC
12:15 AM,47.7,30.2,51,30.40,10.0,NE,10.4,16.1,N/A,,Clear,40,2013-02-16 06:15:00
12:35 AM,47.7,30.4,51,30.40,10.0,NNE,9.2,-,N/A,,Clear,30,2013-02-16 06:35:00
12:55 AM,47.7,30.2,51,30.41,10.0,NNE,5.8,-,N/A,,Clear,20,2013-02-16 06:55:00
1:15 AM,45.1,28.0,51,30.42,10.0,NE,3.5,-,N/A,,Clear,50,2013-02-16 07:15:00
1:35 AM,44.2,28.4,54,30.42,10.0,NE,4.6,-,N/A,,Clear,40,2013-02-16 07:35:00
1:55 AM,41.5,27.3,57,30.42,10.0,Calm,Calm,-,N/A,,Clear,0,2013-02-16 07:55:00
2:15 AM,41.4,27.3,57,30.42,10.0,NE,3.5,-,N/A,,Clear,40,2013-02-16 08:15:00
2:35 AM,40.1,27.1,60,30.42,10.0,NE,4.6,-,N/A,,Clear,40,2013-02-16 08:35:00
2:55 AM,39.9,27.3,61,30.42,10.0,Calm,Calm,-,N/A,,Clear,0,2013-02-16 08:55:00
3:15 AM,39.9,27.0,60,30.42,10.0,Calm,Calm,-,N/A,,Clear,0,2013-02-16 09:15:00
3:35 AM,40.1,26.6,59,30.41,10.0,Calm,Calm,-,N/A,,Clear,0,2013-02-16 09:35:00
3:55 AM,35.6,26.2,69,30.41,10.0,Calm,Calm,-,N/A,,Clear,0,2013-02-16 09:55:00
4:15 AM,37.6,26.4,64,30.41,10.0,Calm,Calm,-,N/A,,Clear,0,2013-02-16 10:15:00
4:35 AM,35.1,25.9,69,30.42,10.0,Calm,Calm,-,N/A,,Clear,0,2013-02-16 10:35:00
4:55 AM,35.1,25.3,68,30.43,10.0,Calm,Calm,-,N/A,,Clear,0,2013-02-16 10:55:00
5:15 AM,34.0,25.9,72,30.43,10.0,Calm,Calm,-,N/A,,Clear,0,2013-02-16 11:15:00
5:35 AM,33.8,25.5,72,30.44,10.0,Calm,Calm,-,N/A,,Clear,0,2013-02-16 11:35:00
5:55 AM,32.9,25.2,73,30.44,10.0,West,3.5,-,N/A,,Clear,260,2013-02-16 11:55:00
6:15 AM,35.1,26.2,70,30.45,10.0,Calm,Calm,-,N/A,,Clear,0,2013-02-16 12:15:00
6:55 AM,34.0,24.8,69,30.46,10.0,Calm,Calm,-,N/A,,Clear,0,2013-02-16 12:55:00
7:15 AM,34.2,25.0,69,30.47,10.0,Calm,Calm,-,N/A,,Clear,0,2013-02-16 13:15:00
7:35 AM,32.4,24.4,73,30.48,10.0,Calm,Calm,-,N/A,,Clear,0,2013-02-16 13:35:00
7:55 AM,32.5,23.9,70,30.48,10.0,Calm,Calm,-,N/A,,Clear,0,2013-02-16 13:55:00
8:15 AM,37.6,27.0,66,30.49,10.0,Calm,Calm,-,N/A,,Clear,0,2013-02-16 14:15:00
8:35 AM,39.4,25.3,57,30.50,10.0,Calm,Calm,-,N/A,,Clear,0,2013-02-16 14:35:00
8:55 AM,43.2,25.5,50,30.49,10.0,Calm,Calm,-,N/A,,Clear,0,2013-02-16 14:55:00
9:15 AM,47.7,27.3,45,30.50,10.0,WNW,4.6,-,N/A,,Clear,290,2013-02-16 15:15:00
9:35 AM,47.7,24.4,40,30.50,10.0,SW,4.6,-,N/A,,Clear,230,2013-02-16 15:35:00
12:15 PM,57.7,26.8,31,30.44,10.0,Calm,Calm,-,N/A,,Clear,0,2013-02-16 18:15:00
12:35 PM,59.0,27.0,29,30.42,10.0,WNW,5.8,-,N/A,,Clear,290,2013-02-16 18:35:00
12:55 PM,59.0,27.3,30,30.40,10.0,West,9.2,-,N/A,,Clear,260,2013-02-16 18:55:00
1:15 PM,60.4,27.5,29,30.38,10.0,SSW,3.5,-,N/A,,Clear,210,2013-02-16 19:15:00
1:35 PM,60.6,27.1,28,30.36,10.0,WSW,8.1,-,N/A,,Clear,240,2013-02-16 19:35:00
1:55 PM,61.2,26.2,26,30.35,10.0,SW,5.8,-,N/A,,Clear,230,2013-02-16 19:55:00
2:15 PM,63.1,26.8,25,30.33,10.0,WSW,11.5,-,N/A,,Clear,240,2013-02-16 20:15:00
2:35 PM,65.3,26.8,23,30.32,10.0,WSW,10.4,-,N/A,,Clear,240,2013-02-16 20:35:00
2:55 PM,65.3,27.0,24,30.31,10.0,SSW,10.4,-,N/A,,Clear,210,2013-02-16 20:55:00
3:15 PM,65.3,23.5,20,30.30,10.0,WSW,6.9,17.3,N/A,,Clear,250,2013-02-16 21:15:00
3:35 PM,65.3,23.7,21,30.29,10.0,WSW,9.2,-,N/A,,Clear,250,2013-02-16 21:35:00
3:55 PM,65.3,23.9,21,30.28,10.0,SSW,4.6,-,N/A,,Clear,200,2013-02-16 21:55:00
4:15 PM,68.0,25.3,20,30.28,10.0,SW,9.2,18.4,N/A,,Clear,220,2013-02-16 22:15:00
4:35 PM,68.0,24.4,19,30.27,10.0,WSW,8.1,-,N/A,,Clear,240,2013-02-16 22:35:00
4:55 PM,67.3,23.9,19,30.27,10.0,SSW,8.1,-,N/A,,Clear,210,2013-02-16 22:55:00
5:15 PM,66.4,22.5,19,30.26,10.0,SSW,9.2,-,N/A,,Clear,200,2013-02-16 23:15:00
5:35 PM,66.6,23.0,19,30.26,10.0,SW,6.9,-,N/A,,Clear,230,2013-02-16 23:35:00
5:55 PM,65.3,21.9,19,30.25,10.0,SW,4.6,-,N/A,,Clear,220,2013-02-16 23:55:00
6:15 PM,63.0,21.6,20,30.25,10.0,SSW,4.6,-,N/A,,Clear,210,2013-02-17 00:15:00
6:35 PM,60.3,23.9,25,30.24,10.0,South,5.8,-,N/A,,Clear,190,2013-02-17 00:35:00
6:55 PM,57.7,24.8,28,30.25,10.0,South,4.6,-,N/A,,Clear,190,2013-02-17 00:55:00
7:15 PM,57.7,25.2,29,30.25,10.0,South,4.6,-,N/A,,Clear,190,2013-02-17 01:15:00
7:35 PM,55.6,23.4,29,30.25,10.0,South,3.5,-,N/A,,Clear,170,2013-02-17 01:35:00
7:55 PM,52.7,23.9,33,30.25,10.0,Calm,Calm,-,N/A,,Clear,0,2013-02-17 01:55:00
8:15 PM,52.7,23.9,33,30.25,10.0,SSE,5.8,-,N/A,,Clear,160,2013-02-17 02:15:00
8:35 PM,52.7,23.7,32,30.25,10.0,SSE,5.8,-,N/A,,Clear,160,2013-02-17 02:35:00
8:55 PM,50.4,23.2,35,30.25,10.0,South,6.9,-,N/A,,Clear,170,2013-02-17 02:55:00
9:15 PM,50.2,23.5,35,30.25,10.0,South,5.8,-,N/A,,Clear,170,2013-02-17 03:15:00
9:35 PM,48.9,23.7,37,30.25,10.0,South,4.6,-,N/A,,Clear,170,2013-02-17 03:35:00
9:55 PM,47.7,24.6,41,30.26,10.0,Calm,Calm,-,N/A,,Clear,0,2013-02-17 03:55:00
10:15 PM,47.7,26.1,43,30.26,10.0,Calm,Calm,-,N/A,,Clear,0,2013-02-17 04:15:00
10:35 PM,47.7,25.3,42,30.25,10.0,Calm,Calm,-,N/A,,Clear,0,2013-02-17 04:35:00
10:55 PM,47.7,23.9,39,30.25,10.0,Calm,Calm,-,N/A,,Clear,0,2013-02-17 04:55:00
11:15 PM,47.7,24.3,40,30.25,10.0,Calm,Calm,-,N/A,,Clear,0,2013-02-17 05:15:00
11:35 PM,47.7,24.1,40,30.24,10.0,Calm,Calm,-,N/A,,Clear,0,2013-02-17 05:35:00
11:55 PM,47.7,25.5,42,30.24,10.0,Calm,Calm,-,N/A,,Clear,0,2013-02-17 05:55:00